Year,Month,Day,Hour,Minute,Value (Times are PST for windspeed in km/hr)
2024,03,11,00,00,0.00
2024,03,11,00,01,0.00
2024,03,11,00,02,0.00
2024,03,11,00,03,0.00
2024,03,11,00,04,0.00
2024,03,11,00,05,0.00
2024,03,11,00,06,0.00
2024,03,11,00,07,0.00
2024,03,11,00,08,0.00
2024,03,11,00,09,0.00
2024,03,11,00,10,0.00
2024,03,11,00,11,0.00
2024,03,11,00,12,0.00
2024,03,11,00,13,0.00
2024,03,11,00,14,0.00
2024,03,11,00,15,0.00
2024,03,11,00,16,0.00
2024,03,11,00,17,0.00
2024,03,11,00,18,0.00
2024,03,11,00,19,0.00
2024,03,11,00,20,0.00
2024,03,11,00,21,0.00
2024,03,11,00,22,0.00
2024,03,11,00,23,0.00
2024,03,11,00,24,0.00
2024,03,11,00,25,0.00
2024,03,11,00,26,0.00
2024,03,11,00,27,0.00
2024,03,11,00,28,0.00
2024,03,11,00,29,0.00
2024,03,11,00,30,0.00
2024,03,11,00,31,0.00
2024,03,11,00,32,0.00
2024,03,11,00,33,0.00
2024,03,11,00,34,0.00
2024,03,11,00,35,0.00
2024,03,11,00,36,0.00
2024,03,11,00,37,0.00
2024,03,11,00,38,0.00
2024,03,11,00,39,0.00
2024,03,11,00,40,0.00
2024,03,11,00,41,0.00
2024,03,11,00,42,0.00
2024,03,11,00,43,0.00
2024,03,11,00,44,0.00
2024,03,11,00,45,0.00
2024,03,11,00,46,0.00
2024,03,11,00,47,0.00
2024,03,11,00,48,0.00
2024,03,11,00,49,0.00
2024,03,11,00,50,0.00
2024,03,11,00,51,0.00
2024,03,11,00,52,0.00
2024,03,11,00,53,0.00
2024,03,11,00,54,0.00
2024,03,11,00,55,0.00
2024,03,11,00,56,0.00
2024,03,11,00,57,0.00
2024,03,11,00,58,0.00
2024,03,11,00,59,0.00
2024,03,11,01,00,0.00
2024,03,11,01,01,0.00
2024,03,11,01,02,0.00
2024,03,11,01,03,0.00
2024,03,11,01,04,0.00
2024,03,11,01,05,0.00
2024,03,11,01,06,0.00
2024,03,11,01,07,0.00
2024,03,11,01,08,0.00
2024,03,11,01,09,0.00
2024,03,11,01,10,0.00
2024,03,11,01,11,0.00
2024,03,11,01,12,0.00
2024,03,11,01,13,0.00
2024,03,11,01,14,0.00
2024,03,11,01,15,0.00
2024,03,11,01,16,0.00
2024,03,11,01,17,0.00
2024,03,11,01,18,0.00
2024,03,11,01,19,0.00
2024,03,11,01,20,0.00
2024,03,11,01,21,0.00
2024,03,11,01,22,0.00
2024,03,11,01,23,0.00
2024,03,11,01,24,0.00
2024,03,11,01,25,0.00
2024,03,11,01,26,0.00
2024,03,11,01,27,0.00
2024,03,11,01,28,0.00
2024,03,11,01,29,0.00
2024,03,11,01,30,0.00
2024,03,11,01,31,0.00
2024,03,11,01,32,0.00
2024,03,11,01,33,0.00
2024,03,11,01,34,0.00
2024,03,11,01,35,0.00
2024,03,11,01,36,0.00
2024,03,11,01,37,0.00
2024,03,11,01,38,0.00
2024,03,11,01,39,0.00
2024,03,11,01,40,0.00
2024,03,11,01,41,0.00
2024,03,11,01,42,0.00
2024,03,11,01,43,0.00
2024,03,11,01,44,0.00
2024,03,11,01,45,0.00
2024,03,11,01,46,0.00
2024,03,11,01,47,0.00
2024,03,11,01,48,0.00
2024,03,11,01,49,0.00
2024,03,11,01,50,0.00
2024,03,11,01,51,0.00
2024,03,11,01,52,0.00
2024,03,11,01,53,0.00
2024,03,11,01,54,0.00
2024,03,11,01,55,0.00
2024,03,11,01,56,0.00
2024,03,11,01,57,0.00
2024,03,11,01,58,0.00
2024,03,11,01,59,0.00
2024,03,11,02,00,0.00
2024,03,11,02,01,0.00
2024,03,11,02,02,0.00
2024,03,11,02,03,0.00
2024,03,11,02,04,0.00
2024,03,11,02,05,0.00
2024,03,11,02,06,0.00
2024,03,11,02,07,0.00
2024,03,11,02,08,0.00
2024,03,11,02,09,0.00
2024,03,11,02,10,0.00
2024,03,11,02,11,0.00
2024,03,11,02,12,0.00
2024,03,11,02,13,0.00
2024,03,11,02,14,0.00
2024,03,11,02,15,0.00
2024,03,11,02,16,0.00
2024,03,11,02,17,0.00
2024,03,11,02,18,0.00
2024,03,11,02,19,0.00
2024,03,11,02,20,0.00
2024,03,11,02,21,0.00
2024,03,11,02,22,0.00
2024,03,11,02,23,0.00
2024,03,11,02,24,0.00
2024,03,11,02,25,0.00
2024,03,11,02,26,0.00
2024,03,11,02,27,0.00
2024,03,11,02,28,0.00
2024,03,11,02,29,0.00
2024,03,11,02,30,0.00
2024,03,11,02,31,0.00
2024,03,11,02,32,0.00
2024,03,11,02,33,0.00
2024,03,11,02,34,0.00
2024,03,11,02,35,0.00
2024,03,11,02,36,0.00
2024,03,11,02,37,0.00
2024,03,11,02,38,0.00
2024,03,11,02,39,0.00
2024,03,11,02,40,0.00
2024,03,11,02,41,0.00
2024,03,11,02,42,0.00
2024,03,11,02,43,0.00
2024,03,11,02,44,0.00
2024,03,11,02,45,0.00
2024,03,11,02,46,0.00
2024,03,11,02,47,0.00
2024,03,11,02,48,0.00
2024,03,11,02,49,0.00
2024,03,11,02,50,0.00
2024,03,11,02,51,0.00
2024,03,11,02,52,0.00
2024,03,11,02,53,0.00
2024,03,11,02,54,0.00
2024,03,11,02,55,0.00
2024,03,11,02,56,0.00
2024,03,11,02,57,0.00
2024,03,11,02,58,0.00
2024,03,11,02,59,0.00
2024,03,11,03,00,0.00
2024,03,11,03,01,0.00
2024,03,11,03,02,0.00
2024,03,11,03,03,0.00
2024,03,11,03,04,0.00
2024,03,11,03,05,0.00
2024,03,11,03,06,0.00
2024,03,11,03,07,0.00
2024,03,11,03,08,0.00
2024,03,11,03,09,0.00
2024,03,11,03,10,0.00
2024,03,11,03,11,0.00
2024,03,11,03,12,0.00
2024,03,11,03,13,0.00
2024,03,11,03,14,0.00
2024,03,11,03,15,0.00
2024,03,11,03,16,0.00
2024,03,11,03,17,0.00
2024,03,11,03,18,0.00
2024,03,11,03,19,0.00
2024,03,11,03,20,0.00
2024,03,11,03,21,0.00
2024,03,11,03,22,0.00
2024,03,11,03,23,0.00
2024,03,11,03,24,0.00
2024,03,11,03,25,0.00
2024,03,11,03,26,0.00
2024,03,11,03,27,0.00
2024,03,11,03,28,0.00
2024,03,11,03,29,0.00
2024,03,11,03,30,0.00
2024,03,11,03,31,0.00
2024,03,11,03,32,0.00
2024,03,11,03,33,0.00
2024,03,11,03,34,0.00
2024,03,11,03,35,0.00
2024,03,11,03,36,0.00
2024,03,11,03,37,0.00
2024,03,11,03,38,0.00
2024,03,11,03,39,0.00
2024,03,11,03,40,0.00
2024,03,11,03,41,0.00
2024,03,11,03,42,0.00
2024,03,11,03,43,0.00
2024,03,11,03,44,0.00
2024,03,11,03,45,0.00
2024,03,11,03,46,0.00
2024,03,11,03,47,0.00
2024,03,11,03,48,0.00
2024,03,11,03,49,0.00
2024,03,11,03,50,0.00
2024,03,11,03,51,0.00
2024,03,11,03,52,0.00
2024,03,11,03,53,0.00
2024,03,11,03,54,0.00
2024,03,11,03,55,0.00
2024,03,11,03,56,0.00
2024,03,11,03,57,0.00
2024,03,11,03,58,0.00
2024,03,11,03,59,0.00
2024,03,11,04,00,0.00
2024,03,11,04,01,0.00
2024,03,11,04,02,0.00
2024,03,11,04,03,0.00
2024,03,11,04,04,0.00
2024,03,11,04,05,0.00
2024,03,11,04,06,0.00
2024,03,11,04,07,0.00
2024,03,11,04,08,0.00
2024,03,11,04,09,0.00
2024,03,11,04,10,0.00
2024,03,11,04,11,0.00
2024,03,11,04,12,0.00
2024,03,11,04,13,0.00
2024,03,11,04,14,0.00
2024,03,11,04,15,0.00
2024,03,11,04,16,0.00
2024,03,11,04,17,0.00
2024,03,11,04,18,0.00
2024,03,11,04,19,0.00
2024,03,11,04,20,0.00
2024,03,11,04,21,0.00
2024,03,11,04,22,0.00
2024,03,11,04,23,0.00
2024,03,11,04,24,0.00
2024,03,11,04,25,0.00
2024,03,11,04,26,0.00
2024,03,11,04,27,0.00
2024,03,11,04,28,0.00
2024,03,11,04,29,0.00
2024,03,11,04,30,0.00
2024,03,11,04,31,0.00
2024,03,11,04,32,0.00
2024,03,11,04,33,0.00
2024,03,11,04,34,0.00
2024,03,11,04,35,0.00
2024,03,11,04,36,0.00
2024,03,11,04,37,0.00
2024,03,11,04,38,0.00
2024,03,11,04,39,0.00
2024,03,11,04,40,0.00
2024,03,11,04,41,0.00
2024,03,11,04,42,0.00
2024,03,11,04,43,0.00
2024,03,11,04,44,0.00
2024,03,11,04,45,0.00
2024,03,11,04,46,0.00
2024,03,11,04,47,0.00
2024,03,11,04,48,0.00
2024,03,11,04,49,0.00
2024,03,11,04,50,0.00
2024,03,11,04,51,0.00
2024,03,11,04,52,0.00
2024,03,11,04,53,0.00
2024,03,11,04,54,0.00
2024,03,11,04,55,0.00
2024,03,11,04,56,0.00
2024,03,11,04,57,0.00
2024,03,11,04,58,0.00
2024,03,11,04,59,0.00
2024,03,11,05,00,0.00
2024,03,11,05,01,0.00
2024,03,11,05,02,0.00
2024,03,11,05,03,0.00
2024,03,11,05,04,0.00
2024,03,11,05,05,0.00
2024,03,11,05,06,0.00
2024,03,11,05,07,0.00
2024,03,11,05,08,0.00
2024,03,11,05,09,0.00
2024,03,11,05,10,0.00
2024,03,11,05,11,0.00
2024,03,11,05,12,0.00
2024,03,11,05,13,0.00
2024,03,11,05,14,0.00
2024,03,11,05,15,0.00
2024,03,11,05,16,0.00
2024,03,11,05,17,0.00
2024,03,11,05,18,0.00
2024,03,11,05,19,0.00
2024,03,11,05,20,0.00
2024,03,11,05,21,0.00
2024,03,11,05,22,0.00
2024,03,11,05,23,0.00
2024,03,11,05,24,0.00
2024,03,11,05,25,0.00
2024,03,11,05,26,0.00
2024,03,11,05,27,0.00
2024,03,11,05,28,0.00
2024,03,11,05,29,0.00
2024,03,11,05,30,0.00
2024,03,11,05,31,0.00
2024,03,11,05,32,0.00
2024,03,11,05,33,0.00
2024,03,11,05,34,0.00
2024,03,11,05,35,0.00
2024,03,11,05,36,0.00
2024,03,11,05,37,0.00
2024,03,11,05,38,0.00
2024,03,11,05,39,0.00
2024,03,11,05,40,0.00
2024,03,11,05,41,0.00
2024,03,11,05,42,0.00
2024,03,11,05,43,0.00
2024,03,11,05,44,0.00
2024,03,11,05,45,0.00
2024,03,11,05,46,0.00
2024,03,11,05,47,0.00
2024,03,11,05,48,0.00
2024,03,11,05,49,0.00
2024,03,11,05,50,0.00
2024,03,11,05,51,0.00
2024,03,11,05,52,0.00
2024,03,11,05,53,0.00
2024,03,11,05,54,0.00
2024,03,11,05,55,0.00
2024,03,11,05,56,0.00
2024,03,11,05,57,0.00
2024,03,11,05,58,0.00
2024,03,11,05,59,0.00
2024,03,11,06,00,0.00
2024,03,11,06,01,0.00
2024,03,11,06,02,0.00
2024,03,11,06,03,0.00
2024,03,11,06,04,0.00
2024,03,11,06,05,0.00
2024,03,11,06,06,0.00
2024,03,11,06,07,0.00
2024,03,11,06,08,0.00
2024,03,11,06,09,0.00
2024,03,11,06,10,0.00
2024,03,11,06,11,0.00
2024,03,11,06,12,0.00
2024,03,11,06,13,0.00
2024,03,11,06,14,0.00
2024,03,11,06,15,0.00
2024,03,11,06,16,0.00
2024,03,11,06,17,0.00
2024,03,11,06,18,0.00
2024,03,11,06,19,0.00
2024,03,11,06,20,0.00
2024,03,11,06,21,0.00
2024,03,11,06,22,0.00
2024,03,11,06,23,0.00
2024,03,11,06,24,0.00
2024,03,11,06,25,0.00
2024,03,11,06,26,0.00
2024,03,11,06,27,0.00
2024,03,11,06,28,0.00
2024,03,11,06,29,0.00
2024,03,11,06,30,0.00
2024,03,11,06,31,0.00
2024,03,11,06,32,0.00
2024,03,11,06,33,0.00
2024,03,11,06,34,0.00
2024,03,11,06,35,0.00
2024,03,11,06,36,0.00
2024,03,11,06,37,0.00
2024,03,11,06,38,0.00
2024,03,11,06,39,0.00
2024,03,11,06,40,0.00
2024,03,11,06,41,0.00
2024,03,11,06,42,0.00
2024,03,11,06,43,0.00
2024,03,11,06,44,0.00
2024,03,11,06,45,0.00
2024,03,11,06,46,0.00
2024,03,11,06,47,0.00
2024,03,11,06,48,0.00
2024,03,11,06,49,0.00
2024,03,11,06,50,0.00
2024,03,11,06,51,0.00
2024,03,11,06,52,0.00
2024,03,11,06,53,0.00
2024,03,11,06,54,0.00
2024,03,11,06,55,0.00
2024,03,11,06,56,0.00
2024,03,11,06,57,0.00
2024,03,11,06,58,0.00
2024,03,11,06,59,0.00
2024,03,11,07,00,0.00
2024,03,11,07,01,0.00
2024,03,11,07,02,0.00
2024,03,11,07,03,0.00
2024,03,11,07,04,0.00
2024,03,11,07,05,0.00
2024,03,11,07,06,0.00
2024,03,11,07,07,0.00
2024,03,11,07,08,0.00
2024,03,11,07,09,0.00
2024,03,11,07,10,0.00
2024,03,11,07,11,0.00
2024,03,11,07,12,0.00
2024,03,11,07,13,0.00
2024,03,11,07,14,0.00
2024,03,11,07,15,0.00
2024,03,11,07,16,0.00
2024,03,11,07,17,0.00
2024,03,11,07,18,0.00
2024,03,11,07,19,0.00
2024,03,11,07,20,0.00
2024,03,11,07,21,0.00
2024,03,11,07,22,0.00
2024,03,11,07,23,0.00
2024,03,11,07,24,0.00
2024,03,11,07,25,0.00
2024,03,11,07,26,0.00
2024,03,11,07,27,0.00
2024,03,11,07,28,0.00
2024,03,11,07,29,0.00
2024,03,11,07,30,0.00
2024,03,11,07,31,0.00
2024,03,11,07,32,0.00
2024,03,11,07,33,0.00
2024,03,11,07,34,0.00
2024,03,11,07,35,0.00
2024,03,11,07,36,0.00
2024,03,11,07,37,0.00
2024,03,11,07,38,0.00
2024,03,11,07,39,0.00
2024,03,11,07,40,0.00
2024,03,11,07,41,0.00
2024,03,11,07,42,0.00
2024,03,11,07,43,0.00
2024,03,11,07,44,0.00
2024,03,11,07,45,0.00
2024,03,11,07,46,0.00
2024,03,11,07,47,0.00
2024,03,11,07,48,0.00
2024,03,11,07,49,0.00
2024,03,11,07,50,0.00
2024,03,11,07,51,0.00
2024,03,11,07,52,0.00
2024,03,11,07,53,0.00
2024,03,11,07,54,0.00
2024,03,11,07,55,0.00
2024,03,11,07,56,0.00
2024,03,11,07,57,0.00
2024,03,11,07,58,0.00
2024,03,11,07,59,0.00
2024,03,11,08,00,0.10
2024,03,11,08,01,2.30
2024,03,11,08,02,2.40
2024,03,11,08,03,1.80
2024,03,11,08,04,1.90
2024,03,11,08,05,1.30
2024,03,11,08,06,1.80
2024,03,11,08,07,2.60
2024,03,11,08,08,3.30
2024,03,11,08,09,5.20
2024,03,11,08,10,5.90
2024,03,11,08,11,4.20
2024,03,11,08,12,1.60
2024,03,11,08,13,5.80
2024,03,11,08,14,6.10
2024,03,11,08,15,4.90
2024,03,11,08,16,3.80
2024,03,11,08,17,4.80
2024,03,11,08,18,2.30
2024,03,11,08,19,3.30
2024,03,11,08,20,3.30
2024,03,11,08,21,6.00
2024,03,11,08,22,4.50
2024,03,11,08,23,1.30
2024,03,11,08,24,1.00
2024,03,11,08,25,2.60
2024,03,11,08,26,2.80
2024,03,11,08,27,3.40
2024,03,11,08,28,2.20
2024,03,11,08,29,0.70
2024,03,11,08,30,3.40
2024,03,11,08,31,7.20
2024,03,11,08,32,5.40
2024,03,11,08,33,5.70
2024,03,11,08,34,4.20
2024,03,11,08,35,6.30
2024,03,11,08,36,7.30
2024,03,11,08,37,5.90
2024,03,11,08,38,4.30
2024,03,11,08,39,5.40
2024,03,11,08,40,5.70
2024,03,11,08,41,7.90
2024,03,11,08,42,6.20
2024,03,11,08,43,4.40
2024,03,11,08,44,3.40
2024,03,11,08,45,9.90
2024,03,11,08,46,7.50
2024,03,11,08,47,6.10
2024,03,11,08,48,7.30
2024,03,11,08,49,4.20
2024,03,11,08,50,5.20
2024,03,11,08,51,5.00
2024,03,11,08,52,6.90
2024,03,11,08,53,7.20
2024,03,11,08,54,2.80
2024,03,11,08,55,5.40
2024,03,11,08,56,7.40
2024,03,11,08,57,7.50
2024,03,11,08,58,8.60
2024,03,11,08,59,7.60
2024,03,11,09,00,7.00
2024,03,11,09,01,10.90
2024,03,11,09,02,10.80
2024,03,11,09,03,10.00
2024,03,11,09,04,5.50
2024,03,11,09,05,10.40
2024,03,11,09,06,14.80
2024,03,11,09,07,11.50
2024,03,11,09,08,10.90
2024,03,11,09,09,13.40
2024,03,11,09,10,7.30
2024,03,11,09,11,4.60
2024,03,11,09,12,8.00
2024,03,11,09,13,12.80
2024,03,11,09,14,14.10
2024,03,11,09,15,12.00
2024,03,11,09,16,10.60
2024,03,11,09,17,9.40
2024,03,11,09,18,10.50
2024,03,11,09,19,12.10
2024,03,11,09,20,6.20
2024,03,11,09,21,9.30
2024,03,11,09,22,8.00
2024,03,11,09,23,13.80
2024,03,11,09,24,11.30
2024,03,11,09,25,4.90
2024,03,11,09,26,4.00
2024,03,11,09,27,2.80
2024,03,11,09,28,3.10
2024,03,11,09,29,8.80
2024,03,11,09,30,7.00
2024,03,11,09,31,4.10
2024,03,11,09,32,6.80
2024,03,11,09,33,10.70
2024,03,11,09,34,7.80
2024,03,11,09,35,6.30
2024,03,11,09,36,13.30
2024,03,11,09,37,11.60
2024,03,11,09,38,15.00
2024,03,11,09,39,12.00
2024,03,11,09,40,15.00
2024,03,11,09,41,14.50
2024,03,11,09,42,17.60
2024,03,11,09,43,7.20
2024,03,11,09,44,7.90
2024,03,11,09,45,11.10
2024,03,11,09,46,4.80
2024,03,11,09,47,15.90
2024,03,11,09,48,10.30
2024,03,11,09,49,11.80
2024,03,11,09,50,8.30
2024,03,11,09,51,5.20
2024,03,11,09,52,6.40
2024,03,11,09,53,5.00
2024,03,11,09,54,5.80
2024,03,11,09,55,8.30
2024,03,11,09,56,5.60
2024,03,11,09,57,11.40
2024,03,11,09,58,12.20
2024,03,11,09,59,4.20
2024,03,11,10,00,5.80
2024,03,11,10,01,7.50
2024,03,11,10,02,7.50
2024,03,11,10,03,8.00
2024,03,11,10,04,7.00
2024,03,11,10,05,5.10
2024,03,11,10,06,10.40
2024,03,11,10,07,11.80
2024,03,11,10,08,15.00
2024,03,11,10,09,12.80
2024,03,11,10,10,13.40
2024,03,11,10,11,10.20
2024,03,11,10,12,11.60
2024,03,11,10,13,10.70
2024,03,11,10,14,9.70
2024,03,11,10,15,5.00
2024,03,11,10,16,13.60
2024,03,11,10,17,13.10
2024,03,11,10,18,7.20
2024,03,11,10,19,8.70
2024,03,11,10,20,8.90
2024,03,11,10,21,9.50
2024,03,11,10,22,12.50
2024,03,11,10,23,15.50
2024,03,11,10,24,15.00
2024,03,11,10,25,13.70
2024,03,11,10,26,17.50
2024,03,11,10,27,10.70
2024,03,11,10,28,13.50
2024,03,11,10,29,9.30
2024,03,11,10,30,17.90
2024,03,11,10,31,19.20
2024,03,11,10,32,17.30
2024,03,11,10,33,13.30
2024,03,11,10,34,9.20
2024,03,11,10,35,15.40
2024,03,11,10,36,18.60
2024,03,11,10,37,16.00
2024,03,11,10,38,13.50
2024,03,11,10,39,14.40
2024,03,11,10,40,14.80
2024,03,11,10,41,8.90
2024,03,11,10,42,9.70
2024,03,11,10,43,10.80
2024,03,11,10,44,13.60
2024,03,11,10,45,14.90
2024,03,11,10,46,11.70
2024,03,11,10,47,14.80
2024,03,11,10,48,16.80
2024,03,11,10,49,17.30
2024,03,11,10,50,9.50
2024,03,11,10,51,17.20
2024,03,11,10,52,15.90
2024,03,11,10,53,12.80
2024,03,11,10,54,9.60
2024,03,11,10,55,12.80
2024,03,11,10,56,9.00
2024,03,11,10,57,13.00
2024,03,11,10,58,16.60
2024,03,11,10,59,12.90
2024,03,11,11,00,14.80
2024,03,11,11,01,15.50
2024,03,11,11,02,20.70
2024,03,11,11,03,14.90
2024,03,11,11,04,15.70
2024,03,11,11,05,17.80
2024,03,11,11,06,18.50
2024,03,11,11,07,13.80
2024,03,11,11,08,15.80
2024,03,11,11,09,9.90
2024,03,11,11,10,10.90
2024,03,11,11,11,12.10
2024,03,11,11,12,6.60
2024,03,11,11,13,18.00
2024,03,11,11,14,22.70
2024,03,11,11,15,24.40
2024,03,11,11,16,16.20
2024,03,11,11,17,25.40
2024,03,11,11,18,16.60
2024,03,11,11,19,14.90
2024,03,11,11,20,12.30
2024,03,11,11,21,10.50
2024,03,11,11,22,27.00
2024,03,11,11,23,24.50
2024,03,11,11,24,24.00
2024,03,11,11,25,26.10
2024,03,11,11,26,26.50
2024,03,11,11,27,18.30
2024,03,11,11,28,21.50
2024,03,11,11,29,31.10
2024,03,11,11,30,26.00
2024,03,11,11,31,21.30
2024,03,11,11,32,29.60
2024,03,11,11,33,26.20
2024,03,11,11,34,26.00
2024,03,11,11,35,27.10
2024,03,11,11,36,26.50
2024,03,11,11,37,26.10
2024,03,11,11,38,27.40
2024,03,11,11,39,17.90
2024,03,11,11,40,26.90
2024,03,11,11,41,26.20
2024,03,11,11,42,23.30
2024,03,11,11,43,20.70
2024,03,11,11,44,19.20
2024,03,11,11,45,19.10
2024,03,11,11,46,7.10
2024,03,11,11,47,15.40
2024,03,11,11,48,20.90
2024,03,11,11,49,23.50
2024,03,11,11,50,20.40
2024,03,11,11,51,27.80
2024,03,11,11,52,21.20
2024,03,11,11,53,26.40
2024,03,11,11,54,25.50
2024,03,11,11,55,31.00
2024,03,11,11,56,26.10
2024,03,11,11,57,26.50
2024,03,11,11,58,26.60
2024,03,11,11,59,26.90
2024,03,11,12,00,29.20
2024,03,11,12,01,21.90
2024,03,11,12,02,23.00
2024,03,11,12,03,19.40
2024,03,11,12,04,25.50
2024,03,11,12,05,25.50
2024,03,11,12,06,25.10
2024,03,11,12,07,27.50
2024,03,11,12,08,20.60
2024,03,11,12,09,23.90
2024,03,11,12,10,20.50
2024,03,11,12,11,25.40
2024,03,11,12,12,20.60
2024,03,11,12,13,25.10
2024,03,11,12,14,24.50
2024,03,11,12,15,22.70
2024,03,11,12,16,19.40
2024,03,11,12,17,27.80
2024,03,11,12,18,29.60
2024,03,11,12,19,33.00
2024,03,11,12,20,34.40
2024,03,11,12,21,30.40
2024,03,11,12,22,26.10
2024,03,11,12,23,27.50
2024,03,11,12,24,29.00
2024,03,11,12,25,20.10
2024,03,11,12,26,28.50
2024,03,11,12,27,24.40
2024,03,11,12,28,27.10
2024,03,11,12,29,26.20
2024,03,11,12,30,22.10
2024,03,11,12,31,20.90
2024,03,11,12,32,22.80
2024,03,11,12,33,21.60
2024,03,11,12,34,32.90
2024,03,11,12,35,26.60
2024,03,11,12,36,22.50
2024,03,11,12,37,35.30
2024,03,11,12,38,24.10
2024,03,11,12,39,27.80
2024,03,11,12,40,30.70
2024,03,11,12,41,28.60
2024,03,11,12,42,24.10
2024,03,11,12,43,36.70
2024,03,11,12,44,38.70
2024,03,11,12,45,29.50
2024,03,11,12,46,27.70
2024,03,11,12,47,31.70
2024,03,11,12,48,36.70
2024,03,11,12,49,31.20
2024,03,11,12,50,28.60
2024,03,11,12,51,32.50
2024,03,11,12,52,31.30
2024,03,11,12,53,34.00
2024,03,11,12,54,26.70
2024,03,11,12,55,22.70
2024,03,11,12,56,27.10
2024,03,11,12,57,28.60
2024,03,11,12,58,24.60
2024,03,11,12,59,24.50
2024,03,11,13,00,24.80
2024,03,11,13,01,19.90
2024,03,11,13,02,28.50
2024,03,11,13,03,27.10
2024,03,11,13,04,30.20
2024,03,11,13,05,26.90
2024,03,11,13,06,27.30
2024,03,11,13,07,29.30
2024,03,11,13,08,24.60
2024,03,11,13,09,23.20
2024,03,11,13,10,25.40
2024,03,11,13,11,25.80
2024,03,11,13,12,25.80
2024,03,11,13,13,28.60
2024,03,11,13,14,26.00
2024,03,11,13,15,29.70
2024,03,11,13,16,26.90
2024,03,11,13,17,29.00
2024,03,11,13,18,27.00
2024,03,11,13,19,34.20
2024,03,11,13,20,35.00
2024,03,11,13,21,31.90
2024,03,11,13,22,34.30
2024,03,11,13,23,28.10
2024,03,11,13,24,27.80
2024,03,11,13,25,34.10
2024,03,11,13,26,30.60
2024,03,11,13,27,33.60
2024,03,11,13,28,31.90
2024,03,11,13,29,29.90
2024,03,11,13,30,33.20
2024,03,11,13,31,24.10
2024,03,11,13,32,29.10
2024,03,11,13,33,22.50
2024,03,11,13,34,28.30
2024,03,11,13,35,18.50
2024,03,11,13,36,19.20
2024,03,11,13,37,22.70
2024,03,11,13,38,26.90
2024,03,11,13,39,27.50
2024,03,11,13,40,21.50
2024,03,11,13,41,26.00
2024,03,11,13,42,27.10
2024,03,11,13,43,30.40
2024,03,11,13,44,24.40
2024,03,11,13,45,22.40
2024,03,11,13,46,27.80
2024,03,11,13,47,31.70
2024,03,11,13,48,27.80
2024,03,11,13,49,28.00
2024,03,11,13,50,23.40
2024,03,11,13,51,26.10
2024,03,11,13,52,27.70
2024,03,11,13,53,27.70
2024,03,11,13,54,20.40
2024,03,11,13,55,19.80
2024,03,11,13,56,22.50
2024,03,11,13,57,25.30
2024,03,11,13,58,29.50
2024,03,11,13,59,27.20
2024,03,11,14,00,26.40
2024,03,11,14,01,28.80
2024,03,11,14,02,23.30
2024,03,11,14,03,22.80
2024,03,11,14,04,19.00
2024,03,11,14,05,29.30
2024,03,11,14,06,35.10
2024,03,11,14,07,26.40
2024,03,11,14,08,26.80
2024,03,11,14,09,29.90
2024,03,11,14,10,32.90
2024,03,11,14,11,28.90
2024,03,11,14,12,31.90
2024,03,11,14,13,32.80
2024,03,11,14,14,35.60
2024,03,11,14,15,24.30
2024,03,11,14,16,22.00
2024,03,11,14,17,25.50
2024,03,11,14,18,37.70
2024,03,11,14,19,34.40
2024,03,11,14,20,33.40
2024,03,11,14,21,30.30
2024,03,11,14,22,29.50
2024,03,11,14,23,32.30
2024,03,11,14,24,28.30
2024,03,11,14,25,35.60
2024,03,11,14,26,29.30
2024,03,11,14,27,32.70
2024,03,11,14,28,27.70
2024,03,11,14,29,31.00
2024,03,11,14,30,31.40
2024,03,11,14,31,27.80
2024,03,11,14,32,23.10
2024,03,11,14,33,29.70
2024,03,11,14,34,28.90
2024,03,11,14,35,27.40
2024,03,11,14,36,26.50
2024,03,11,14,37,30.50
2024,03,11,14,38,33.00
2024,03,11,14,39,30.70
2024,03,11,14,40,21.40
2024,03,11,14,41,26.60
2024,03,11,14,42,25.60
2024,03,11,14,43,23.10
2024,03,11,14,44,25.40
2024,03,11,14,45,19.10
2024,03,11,14,46,31.10
2024,03,11,14,47,26.30
2024,03,11,14,48,28.00
2024,03,11,14,49,30.30
2024,03,11,14,50,26.90
2024,03,11,14,51,35.70
2024,03,11,14,52,24.70
2024,03,11,14,53,31.10
2024,03,11,14,54,33.00
2024,03,11,14,55,20.60
2024,03,11,14,56,18.60
2024,03,11,14,57,28.80
2024,03,11,14,58,24.80
2024,03,11,14,59,21.90
2024,03,11,15,00,24.80
2024,03,11,15,01,17.10
2024,03,11,15,02,35.40
2024,03,11,15,03,29.60
2024,03,11,15,04,36.40
2024,03,11,15,05,36.90
2024,03,11,15,06,32.30
2024,03,11,15,07,34.20
2024,03,11,15,08,29.30
2024,03,11,15,09,28.40
2024,03,11,15,10,28.70
2024,03,11,15,11,24.90
2024,03,11,15,12,32.30
2024,03,11,15,13,28.10
2024,03,11,15,14,27.30
2024,03,11,15,15,28.20
2024,03,11,15,16,25.70
2024,03,11,15,17,21.80
2024,03,11,15,18,35.00
2024,03,11,15,19,34.80
2024,03,11,15,20,18.00
2024,03,11,15,21,32.00
2024,03,11,15,22,33.20
2024,03,11,15,23,21.80
2024,03,11,15,24,17.90
2024,03,11,15,25,17.10
2024,03,11,15,26,30.10
2024,03,11,15,27,28.90
2024,03,11,15,28,27.20
2024,03,11,15,29,32.00
2024,03,11,15,30,35.70
2024,03,11,15,31,40.30
2024,03,11,15,32,28.80
2024,03,11,15,33,25.00
2024,03,11,15,34,19.70
2024,03,11,15,35,25.10
2024,03,11,15,36,31.00
2024,03,11,15,37,39.70
2024,03,11,15,38,31.30
2024,03,11,15,39,32.50
2024,03,11,15,40,32.90
2024,03,11,15,41,22.40
2024,03,11,15,42,27.80
2024,03,11,15,43,28.00
2024,03,11,15,44,32.90
2024,03,11,15,45,22.90
2024,03,11,15,46,22.00
2024,03,11,15,47,16.90
2024,03,11,15,48,36.90
2024,03,11,15,49,31.50
2024,03,11,15,50,24.20
2024,03,11,15,51,28.50
2024,03,11,15,52,31.10
2024,03,11,15,53,28.90
2024,03,11,15,54,27.90
2024,03,11,15,55,40.40
2024,03,11,15,56,33.00
2024,03,11,15,57,32.70
2024,03,11,15,58,36.30
2024,03,11,15,59,36.80
2024,03,11,16,00,28.50
2024,03,11,16,01,25.50
2024,03,11,16,02,31.10
2024,03,11,16,03,34.60
2024,03,11,16,04,26.20
2024,03,11,16,05,36.80
2024,03,11,16,06,34.00
2024,03,11,16,07,33.50
2024,03,11,16,08,32.60
2024,03,11,16,09,34.30
2024,03,11,16,10,39.50
2024,03,11,16,11,41.20
2024,03,11,16,12,34.40
2024,03,11,16,13,34.60
2024,03,11,16,14,27.40
2024,03,11,16,15,36.40
2024,03,11,16,16,27.60
2024,03,11,16,17,34.00
2024,03,11,16,18,33.90
2024,03,11,16,19,27.90
2024,03,11,16,20,37.90
2024,03,11,16,21,37.90
2024,03,11,16,22,28.10
2024,03,11,16,23,29.80
2024,03,11,16,24,24.40
2024,03,11,16,25,28.90
2024,03,11,16,26,29.60
2024,03,11,16,27,33.30
2024,03,11,16,28,30.00
2024,03,11,16,29,27.00
2024,03,11,16,30,32.50
2024,03,11,16,31,29.50
2024,03,11,16,32,31.50
2024,03,11,16,33,23.60
2024,03,11,16,34,33.00
2024,03,11,16,35,31.20
2024,03,11,16,36,24.20
2024,03,11,16,37,22.80
2024,03,11,16,38,34.90
2024,03,11,16,39,28.80
2024,03,11,16,40,26.90
2024,03,11,16,41,18.60
2024,03,11,16,42,27.50
2024,03,11,16,43,25.10
2024,03,11,16,44,26.90
2024,03,11,16,45,23.50
2024,03,11,16,46,32.30
2024,03,11,16,47,21.40
2024,03,11,16,48,23.40
2024,03,11,16,49,26.50
2024,03,11,16,50,18.60
2024,03,11,16,51,27.10
2024,03,11,16,52,24.20
2024,03,11,16,53,28.50
2024,03,11,16,54,29.80
2024,03,11,16,55,21.90
2024,03,11,16,56,23.90
2024,03,11,16,57,36.20
2024,03,11,16,58,30.70
2024,03,11,16,59,32.30
2024,03,11,17,00,32.70
2024,03,11,17,01,33.00
2024,03,11,17,02,31.60
2024,03,11,17,03,27.80
2024,03,11,17,04,26.60
2024,03,11,17,05,27.00
2024,03,11,17,06,31.30
2024,03,11,17,07,29.80
2024,03,11,17,08,15.70
2024,03,11,17,09,26.00
2024,03,11,17,10,22.80
2024,03,11,17,11,22.10
2024,03,11,17,12,17.90
2024,03,11,17,13,0.00
2024,03,11,17,14,0.00
2024,03,11,17,15,0.00
2024,03,11,17,16,0.00
2024,03,11,17,17,0.00
2024,03,11,17,18,0.00
2024,03,11,17,19,0.00
2024,03,11,17,20,0.00
2024,03,11,17,21,0.00
2024,03,11,17,22,0.00
2024,03,11,17,23,0.00
2024,03,11,17,24,0.00
2024,03,11,17,25,0.00
2024,03,11,17,26,0.00
2024,03,11,17,27,0.00
2024,03,11,17,28,0.00
2024,03,11,17,29,0.00
2024,03,11,17,30,0.00
2024,03,11,17,31,0.00
2024,03,11,17,32,0.00
2024,03,11,17,33,0.00
2024,03,11,17,34,0.00
2024,03,11,17,35,0.00
2024,03,11,17,36,0.00
2024,03,11,17,37,0.00
2024,03,11,17,38,0.00
2024,03,11,17,39,0.00
2024,03,11,17,40,0.00
2024,03,11,17,41,0.00
2024,03,11,17,42,0.00
2024,03,11,17,43,0.00
2024,03,11,17,44,0.00
2024,03,11,17,45,0.00
2024,03,11,17,46,0.00